This demonstration page uses our WeatherBlox Daily Observations layout. Learn more.

Left ArrowRight Arrow

38.88101, -77.10428

Hourly Observations for July 12, 2016

Temp ( °F °C ) Dew Point ( °F °C ) Humidity (%) Winds ( mph kmh ) Pressure ( in mb ) Visibility ( mi km ) Precip ( " mm )
12:52 am 00:52 Mostly Cloudy 74 23.3 64 17.8 71 71 SW 6 9 30.07 1018 10 16.0934 0 0
1:52 am 01:52 Mostly Cloudy 75 23.9 62 16.7 64 64 Calm 30.07 1018 10 16.0934 0 0
2:52 am 02:52 Mostly Cloudy 73 22.8 65 18.3 76 76 SW 5 7 30.07 1018 10 16.0934 0 0
3:52 am 03:52 Mostly Cloudy 74 23.3 66 18.9 76 76 Calm 30.07 1018 10 16.0934 0 0
4:52 am 04:52 Mostly Cloudy 74 23.3 65 18.3 74 74 Calm 30.08 1019 10 16.0934 0 0
5:52 am 05:52 Partly Cloudy 74 23.3 65 18.3 74 74 Calm 30.1 1019 10 16.0934 0 0
6:52 am 06:52 Cloudy 73 22.8 67 19.4 81 81 SE 5 7 30.11 1020 10 16.0934 0 0
7:52 am 07:52 Cloudy 74 23.3 68 20 82 82 SE 3 6 30.11 1020 10 16.0934 0 0
8:52 am 08:52 Cloudy 77 25 71 21.7 82 82 SSE 6 9 30.12 1020 10 16.0934 0 0
9:52 am 09:52 Cloudy 80 26.7 71 21.7 74 74 S 9 15 30.12 1020 10 16.0934 0 0
10:52 am 10:52 Cloudy 82 28 70 21 66 66 S 9 15 30.12 1020 10 16.0934 0 0
11:25 am 11:25 Cloudy 84 28.9 68 20 59 59 SSW 12 19 30.12 1020 10 16.0934 0 0
11:52 am 11:52 Mostly Cloudy 84 28.9 68 20 59 59 S 10 17 30.11 1020 10 16.0934 0 0
12:52 pm 12:52 Mostly Cloudy 85 29.4 69 20.6 59 59 S 13 20 30.11 1020 10 16.0934 0 0
1:52 pm 13:52 Mostly Cloudy 83 28.3 68 20 61 61 S 12 19 30.1 1019 10 16.0934 0 0
2:52 pm 14:52 Mostly Cloudy 87 30.6 68 20 53 53 S 14 22 30.08 1019 10 16.0934 0 0
3:52 pm 15:52 Mostly Cloudy 86 30 66 18.9 51 51 SSE 9 15 30.06 1018 10 16.0934 0 0
4:52 pm 16:52 Mostly Cloudy 86 30 64 17.8 48 48 SSE 13 20 30.05 1018 10 16.0934 0 0
5:52 pm 17:52 Mostly Cloudy 86 30 68 20 55 55 SSE 12 19 30.04 1017 10 16.0934 0 0
6:52 pm 18:52 Partly Cloudy 84 28.9 70 21.1 63 63 SE 13 20 30.04 1017 10 16.0934 0 0
7:52 pm 19:52 Mostly Cloudy 82 27.8 68 20 63 63 SE 12 19 30.04 1017 10 16.0934 0 0
8:52 pm 20:52 Mostly Cloudy 81 27.2 68 20 65 65 SSE 13 20 30.04 1017 10 16.0934 0 0
9:52 pm 21:52 Partly Cloudy 79 26.1 68 20 69 69 SSE 12 19 30.04 1017 10 16.0934 0 0
10:52 pm 22:52 Mostly Cloudy 78 25.6 68 20 71 71 SSE 8 13 30.05 1018 10 16.0934 0 0
11:52 pm 23:52 Mostly Cloudy 78 25.6 68 20 71 71 S 12 19 30.06 1018 10 16.0934 0 0

Powered by AerisWeather